RYR2LH LICC-LIMJ

Flight info

Callsign RYR2LH
Flight time 1h 22m
Altitude 38000
Route BUDIN DCT TAGEL DCT ELB DCT BETEN/N0330F180 M729 IDONA
Aircraft B738/M-SDE2E3FGHIRWXY/LB1

Departure

Time 2026-05-08 06:50
Airport Catania-Fontanarossa Airport (LICC)

Arrival

Time 2026-05-08 08:13
Airport Genoa Cristoforo Colombo Airport (LIMJ)
Time Latitude Longitude Altitude Speed Heading
2026-05-08 06:17 37.46959 15.06472 32 ft 0 kts 21°
2026-05-08 06:41 37.46957 15.06472 35 ft 1 kts 21°
2026-05-08 06:42 37.46943 15.06465 35 ft 2 kts 21°
2026-05-08 06:42 37.46929 15.06458 35 ft 2 kts 21°
2026-05-08 06:42 37.46915 15.06451 35 ft 2 kts 21°
2026-05-08 06:42 37.46901 15.06445 35 ft 2 kts 21°
2026-05-08 06:43 37.46887 15.06438 35 ft 2 kts 21°
2026-05-08 06:43 37.46878 15.06433 35 ft 2 kts 17°
2026-05-08 06:43 37.46863 15.06432 35 ft 2 kts 349°
2026-05-08 06:43 37.46849 15.06438 35 ft 2 kts 328°
2026-05-08 06:44 37.46838 15.06451 34 ft 2 kts 306°
2026-05-08 06:44 37.46831 15.06467 34 ft 2 kts 285°
2026-05-08 06:44 37.46829 15.06483 34 ft 0 kts 267°
2026-05-08 06:44 37.46830 15.06491 34 ft 0 kts 264°
2026-05-08 06:47 37.46828 15.06458 34 ft 7 kts 265°
2026-05-08 06:47 37.46820 15.06362 35 ft 14 kts 264°
2026-05-08 06:47 37.46807 15.06224 37 ft 15 kts 264°
2026-05-08 06:48 37.46798 15.06099 39 ft 13 kts 265°
2026-05-08 06:48 37.46789 15.05993 41 ft 11 kts 263°
2026-05-08 06:48 37.46779 15.05871 43 ft 16 kts 264°
2026-05-08 06:48 37.46766 15.05718 46 ft 17 kts 264°
2026-05-08 06:49 37.46756 15.05588 48 ft 10 kts 265°
2026-05-08 06:49 37.46739 15.05511 50 ft 8 kts 239°
2026-05-08 06:49 37.46688 15.05464 50 ft 11 kts 191°
2026-05-08 06:49 37.46600 15.05506 50 ft 17 kts 127°
2026-05-08 06:50 37.46605 15.05762 45 ft 57 kts 84°
2026-05-08 06:50 37.46672 15.06568 33 ft 126 kts 84°
2026-05-08 06:50 37.46789 15.07918 116 ft 172 kts 83°
2026-05-08 06:50 37.46926 15.09395 773 ft 174 kts 82°
2026-05-08 06:51 37.47131 15.10902 1428 ft 180 kts 77°
2026-05-08 06:51 37.47379 15.12477 1922 ft 189 kts 78°
2026-05-08 06:51 37.47608 15.14172 2317 ft 203 kts 79°
2026-05-08 06:51 37.47858 15.15995 2654 ft 220 kts 74°
2026-05-08 06:52 37.48560 15.17739 3024 ft 231 kts 43°
2026-05-08 06:52 37.49874 15.18833 3647 ft 228 kts 13°
2026-05-08 06:52 37.51458 15.19041 4018 ft 237 kts 352°
2026-05-08 06:52 37.53155 15.18829 4433 ft 251 kts 350°
2026-05-08 06:53 37.54937 15.18593 4874 ft 264 kts 351°
2026-05-08 06:53 37.56771 15.18377 5454 ft 271 kts 351°
2026-05-08 06:53 37.58689 15.18165 6095 ft 276 kts 351°
2026-05-08 06:53 37.60604 15.17954 6742 ft 281 kts 350°
2026-05-08 06:54 37.62549 15.17738 7449 ft 283 kts 349°
2026-05-08 06:54 37.64513 15.17517 8121 ft 286 kts 349°
2026-05-08 06:54 37.66512 15.17289 8769 ft 292 kts 348°
2026-05-08 06:54 37.68562 15.17056 9538 ft 294 kts 347°
2026-05-08 06:55 37.70589 15.16827 10239 ft 298 kts 347°
2026-05-08 06:55 37.72702 15.16579 10683 ft 312 kts 347°
2026-05-08 06:55 37.74902 15.16320 11131 ft 326 kts 347°
2026-05-08 06:55 37.77219 15.16049 11602 ft 339 kts 348°
2026-05-08 06:56 37.79598 15.15779 12181 ft 348 kts 348°
2026-05-08 06:56 37.82016 15.15510 12906 ft 352 kts 347°
2026-05-08 06:56 37.84445 15.15240 13657 ft 355 kts 347°
2026-05-08 06:56 37.86938 15.14961 14399 ft 359 kts 347°
2026-05-08 06:57 37.89417 15.14681 15131 ft 363 kts 347°
2026-05-08 06:57 37.91929 15.14396 15850 ft 367 kts 347°
2026-05-08 06:57 37.94483 15.14107 16626 ft 368 kts 346°
2026-05-08 06:57 37.97016 15.13819 17359 ft 370 kts 346°
2026-05-08 06:58 37.99605 15.13524 18026 ft 375 kts 346°
2026-05-08 06:58 38.02188 15.13227 18745 ft 376 kts 346°
2026-05-08 06:58 38.04817 15.12926 19392 ft 380 kts 345°
2026-05-08 06:58 38.07463 15.12620 20032 ft 383 kts 345°
2026-05-08 06:59 38.10088 15.12319 20731 ft 384 kts 345°
2026-05-08 06:59 38.12775 15.12013 21362 ft 387 kts 345°
2026-05-08 06:59 38.15445 15.11708 21992 ft 388 kts 345°
2026-05-08 06:59 38.18142 15.11399 22604 ft 390 kts 345°
2026-05-08 07:00 38.20836 15.11088 23134 ft 394 kts 345°
2026-05-08 07:00 38.23584 15.10769 23651 ft 398 kts 345°
2026-05-08 07:00 38.26331 15.10455 24350 ft 397 kts 345°
2026-05-08 07:00 38.29089 15.10140 24832 ft 402 kts 346°
2026-05-08 07:01 38.31881 15.09815 25305 ft 406 kts 346°
2026-05-08 07:01 38.34700 15.09489 25813 ft 409 kts 346°
2026-05-08 07:01 38.37543 15.09161 26327 ft 411 kts 345°
2026-05-08 07:01 38.40418 15.08830 26771 ft 415 kts 346°
2026-05-08 07:02 38.43278 15.08459 27224 ft 415 kts 343°
2026-05-08 07:02 38.46092 15.07827 27679 ft 411 kts 337°
2026-05-08 07:02 38.48760 15.06659 28072 ft 402 kts 327°
2026-05-08 07:02 38.51166 15.04960 28687 ft 392 kts 319°
2026-05-08 07:03 38.53420 15.02971 29079 ft 392 kts 316°
2026-05-08 07:03 38.55605 15.00868 29411 ft 396 kts 315°
2026-05-08 07:03 38.57813 14.98693 29770 ft 399 kts 315°
2026-05-08 07:03 38.60033 14.96510 30084 ft 404 kts 315°
2026-05-08 07:04 38.62278 14.94324 30430 ft 407 kts 315°
2026-05-08 07:04 38.64547 14.92140 30798 ft 409 kts 316°
2026-05-08 07:04 38.66845 14.89941 31104 ft 412 kts 316°
2026-05-08 07:04 38.69130 14.87768 31467 ft 414 kts 316°
2026-05-08 07:05 38.71425 14.85596 32075 ft 409 kts 316°
2026-05-08 07:05 38.73693 14.83451 32525 ft 407 kts 316°
2026-05-08 07:05 38.75989 14.81275 32891 ft 408 kts 316°
2026-05-08 07:05 38.78261 14.79121 33339 ft 406 kts 316°
2026-05-08 07:06 38.80511 14.76986 33761 ft 404 kts 316°
2026-05-08 07:06 38.82767 14.74843 34141 ft 404 kts 316°
2026-05-08 07:06 38.85005 14.72712 34440 ft 405 kts 316°
2026-05-08 07:06 38.87291 14.70531 34768 ft 405 kts 316°
2026-05-08 07:07 38.89546 14.68378 35098 ft 406 kts 316°
2026-05-08 07:07 38.91804 14.66223 35485 ft 404 kts 316°
2026-05-08 07:07 38.94046 14.64083 35831 ft 403 kts 316°
2026-05-08 07:07 38.96322 14.61910 36174 ft 402 kts 316°
2026-05-08 07:08 38.98545 14.59784 36413 ft 403 kts 316°
2026-05-08 07:08 39.00791 14.57631 36662 ft 403 kts 316°
2026-05-08 07:08 39.03047 14.55470 36906 ft 404 kts 316°
2026-05-08 07:08 39.05292 14.53317 37135 ft 405 kts 316°
2026-05-08 07:09 39.07554 14.51145 37291 ft 407 kts 316°
2026-05-08 07:09 39.09821 14.48968 37625 ft 404 kts 316°
2026-05-08 07:09 39.12076 14.46804 37876 ft 403 kts 316°
2026-05-08 07:09 39.14323 14.44642 37905 ft 406 kts 316°
2026-05-08 07:10 39.18859 14.40269 37894 ft 406 kts 316°
2026-05-08 07:10 39.23400 14.35888 37907 ft 408 kts 316°
2026-05-08 07:11 39.27908 14.31538 37913 ft 405 kts 316°
2026-05-08 07:11 39.32441 14.27151 37907 ft 407 kts 316°
2026-05-08 07:12 39.36946 14.22781 37920 ft 409 kts 316°
2026-05-08 07:12 39.41477 14.18382 37909 ft 407 kts 316°
2026-05-08 07:13 39.45997 14.13986 37917 ft 407 kts 316°
2026-05-08 07:13 39.50552 14.09545 37917 ft 410 kts 316°
2026-05-08 07:14 39.55069 14.05140 37919 ft 408 kts 316°
2026-05-08 07:14 39.59620 14.00691 37925 ft 409 kts 316°
2026-05-08 07:15 39.64130 13.96277 37925 ft 408 kts 316°
2026-05-08 07:15 39.68657 13.91838 37925 ft 408 kts 316°
2026-05-08 07:16 39.73186 13.87384 37924 ft 408 kts 316°
2026-05-08 07:16 39.77708 13.82931 37925 ft 410 kts 317°
2026-05-08 07:17 39.82238 13.78468 37923 ft 408 kts 317°
2026-05-08 07:17 39.86749 13.74017 37920 ft 407 kts 317°
2026-05-08 07:18 39.91287 13.69525 37926 ft 410 kts 317°
2026-05-08 07:18 39.95810 13.65041 37923 ft 410 kts 317°
2026-05-08 07:19 40.00321 13.60567 37926 ft 408 kts 317°
2026-05-08 07:19 40.04858 13.56056 37927 ft 410 kts 317°
2026-05-08 07:20 40.09370 13.51564 37936 ft 410 kts 317°
2026-05-08 07:20 40.13910 13.47036 37922 ft 409 kts 317°
2026-05-08 07:21 40.18395 13.42553 37924 ft 410 kts 317°
2026-05-08 07:21 40.22944 13.37996 37926 ft 412 kts 317°
2026-05-08 07:22 40.27465 13.33466 37923 ft 410 kts 317°
2026-05-08 07:22 40.31953 13.28861 37927 ft 410 kts 315°
2026-05-08 07:23 40.36250 13.23976 37924 ft 409 kts 314°
2026-05-08 07:23 40.40493 13.19032 37912 ft 409 kts 313°
2026-05-08 07:24 40.44763 13.14086 37906 ft 410 kts 314°
2026-05-08 07:24 40.49048 13.09152 37908 ft 410 kts 314°
2026-05-08 07:25 40.53345 13.04210 37909 ft 411 kts 314°
2026-05-08 07:26 40.59803 12.96779 37906 ft 411 kts 314°
2026-05-08 07:26 40.64078 12.91851 37911 ft 412 kts 314°
2026-05-08 07:27 40.68375 12.86891 37906 ft 412 kts 314°
2026-05-08 07:27 40.72688 12.81904 37909 ft 412 kts 314°
2026-05-08 07:28 40.76966 12.76947 37914 ft 413 kts 314°
2026-05-08 07:28 40.81297 12.71918 37911 ft 414 kts 314°
2026-05-08 07:29 40.85589 12.66927 37917 ft 411 kts 314°
2026-05-08 07:29 40.89873 12.61936 37913 ft 413 kts 314°
2026-05-08 07:30 40.94171 12.56916 37918 ft 414 kts 314°
2026-05-08 07:30 40.98481 12.51879 37921 ft 411 kts 315°
2026-05-08 07:31 41.02753 12.46871 37923 ft 414 kts 315°
2026-05-08 07:31 41.07071 12.41802 37924 ft 412 kts 315°
2026-05-08 07:32 41.11351 12.36769 37920 ft 414 kts 315°
2026-05-08 07:32 41.15666 12.31689 37926 ft 414 kts 314°
2026-05-08 07:33 41.19967 12.26615 37926 ft 414 kts 314°
2026-05-08 07:33 41.24262 12.21538 37923 ft 415 kts 314°
2026-05-08 07:34 41.28540 12.16472 37927 ft 414 kts 314°
2026-05-08 07:34 41.32843 12.11365 37917 ft 415 kts 314°
2026-05-08 07:35 41.37151 12.06247 37914 ft 414 kts 314°
2026-05-08 07:35 41.41437 12.01141 37914 ft 417 kts 314°
2026-05-08 07:36 41.45738 11.96007 37915 ft 417 kts 314°
2026-05-08 07:36 41.50064 11.90841 37918 ft 416 kts 314°
2026-05-08 07:37 41.54371 11.85682 37915 ft 417 kts 314°
2026-05-08 07:37 41.58664 11.80533 37923 ft 416 kts 314°
2026-05-08 07:38 41.62957 11.75372 37916 ft 418 kts 314°
2026-05-08 07:38 41.67267 11.70180 37915 ft 417 kts 314°
2026-05-08 07:39 41.71542 11.65023 37913 ft 417 kts 314°
2026-05-08 07:39 41.75857 11.59807 37912 ft 418 kts 314°
2026-05-08 07:40 41.80162 11.54590 37906 ft 417 kts 314°
2026-05-08 07:40 41.84466 11.49371 37914 ft 416 kts 314°
2026-05-08 07:41 41.88756 11.44155 37904 ft 419 kts 314°
2026-05-08 07:41 41.93041 11.38936 37908 ft 419 kts 314°
2026-05-08 07:42 41.97346 11.33684 37906 ft 419 kts 313°
2026-05-08 07:42 42.01669 11.28397 37902 ft 421 kts 314°
2026-05-08 07:43 42.05968 11.23132 37909 ft 419 kts 313°
2026-05-08 07:43 42.10274 11.17850 37906 ft 419 kts 313°
2026-05-08 07:44 42.14558 11.12583 37904 ft 418 kts 313°
2026-05-08 07:44 42.18846 11.07299 37899 ft 418 kts 313°
2026-05-08 07:45 42.23126 11.02015 37921 ft 418 kts 313°
2026-05-08 07:45 42.27412 10.96712 37925 ft 420 kts 313°
2026-05-08 07:46 42.31707 10.91392 37922 ft 418 kts 313°
2026-05-08 07:46 42.35984 10.86082 37921 ft 419 kts 313°
2026-05-08 07:47 42.40272 10.80746 37925 ft 420 kts 313°
2026-05-08 07:47 42.44537 10.75433 37926 ft 418 kts 313°
2026-05-08 07:48 42.48799 10.70112 37930 ft 420 kts 313°
2026-05-08 07:48 42.53073 10.64766 37929 ft 418 kts 313°
2026-05-08 07:49 42.57339 10.59418 37929 ft 418 kts 313°
2026-05-08 07:49 42.61589 10.54080 37928 ft 418 kts 313°
2026-05-08 07:50 42.65844 10.48727 37923 ft 419 kts 313°
2026-05-08 07:50 42.70123 10.43346 37922 ft 420 kts 314°
2026-05-08 07:51 42.74696 10.38347 37926 ft 425 kts 322°
2026-05-08 07:51 42.79809 10.34219 37925 ft 429 kts 327°
2026-05-08 07:52 42.85010 10.30400 37922 ft 428 kts 327°
2026-05-08 07:52 42.90252 10.26552 37924 ft 429 kts 327°
2026-05-08 07:53 42.95511 10.22633 37929 ft 431 kts 326°
2026-05-08 07:53 43.00734 10.18701 37933 ft 428 kts 326°
2026-05-08 07:54 43.05923 10.14768 37378 ft 434 kts 326°
2026-05-08 07:54 43.08555 10.12767 36853 ft 431 kts 326°
2026-05-08 07:54 43.11178 10.10771 36242 ft 432 kts 326°
2026-05-08 07:54 43.13799 10.08774 35829 ft 431 kts 326°
2026-05-08 07:55 43.16423 10.06773 35373 ft 432 kts 326°
2026-05-08 07:55 43.19036 10.04773 34713 ft 437 kts 326°
2026-05-08 07:55 43.21706 10.02728 33891 ft 441 kts 326°
2026-05-08 07:55 43.24356 10.00700 33240 ft 439 kts 327°
2026-05-08 07:56 43.27045 9.98641 32350 ft 444 kts 327°
2026-05-08 07:56 43.29735 9.96578 31448 ft 448 kts 327°
2026-05-08 07:56 43.32448 9.94493 30621 ft 450 kts 327°
2026-05-08 07:56 43.35152 9.92413 29799 ft 452 kts 327°
2026-05-08 07:57 43.37911 9.90288 28940 ft 454 kts 327°
2026-05-08 07:57 43.40633 9.88191 28099 ft 455 kts 327°
2026-05-08 07:57 43.43381 9.86072 27292 ft 455 kts 328°
2026-05-08 07:57 43.46143 9.83942 26419 ft 456 kts 328°
2026-05-08 07:58 43.48921 9.81798 25583 ft 456 kts 328°
2026-05-08 07:58 43.51645 9.79693 24694 ft 457 kts 328°
2026-05-08 07:58 43.54420 9.77546 23826 ft 456 kts 328°
2026-05-08 07:58 43.57180 9.75408 23104 ft 453 kts 329°
2026-05-08 07:59 43.59890 9.73308 22518 ft 446 kts 329°
2026-05-08 07:59 43.62566 9.71234 21844 ft 443 kts 329°
2026-05-08 07:59 43.65236 9.69161 21223 ft 438 kts 329°
2026-05-08 07:59 43.67867 9.67116 20586 ft 433 kts 329°
2026-05-08 08:00 43.70473 9.65086 19933 ft 429 kts 329°
2026-05-08 08:00 43.73038 9.63086 19315 ft 425 kts 329°
2026-05-08 08:00 43.75595 9.61089 18709 ft 420 kts 330°
2026-05-08 08:00 43.78104 9.59127 18135 ft 414 kts 330°
2026-05-08 08:01 43.80608 9.57166 17958 ft 409 kts 330°
2026-05-08 08:01 43.83099 9.55213 17958 ft 415 kts 330°
2026-05-08 08:01 43.85604 9.53248 17952 ft 414 kts 330°
2026-05-08 08:01 43.88075 9.51310 17852 ft 402 kts 330°
2026-05-08 08:02 43.90493 9.49412 17037 ft 405 kts 330°
2026-05-08 08:02 43.92933 9.47495 16344 ft 403 kts 330°
2026-05-08 08:02 43.95347 9.45583 15684 ft 400 kts 329°
2026-05-08 08:02 43.97631 9.43455 15020 ft 397 kts 322°
2026-05-08 08:03 43.99619 9.40843 14380 ft 393 kts 311°
2026-05-08 08:03 44.01291 9.37839 13709 ft 390 kts 306°
2026-05-08 08:03 44.02870 9.34822 13064 ft 385 kts 307°
2026-05-08 08:03 44.04559 9.32088 12434 ft 368 kts 315°
2026-05-08 08:04 44.06444 9.29783 11903 ft 351 kts 323°
2026-05-08 08:04 44.08498 9.28154 11517 ft 336 kts 340°
2026-05-08 08:04 44.10706 9.27386 11118 ft 318 kts 351°
2026-05-08 08:04 44.12835 9.26990 10761 ft 302 kts 354°
2026-05-08 08:05 44.14880 9.26701 10436 ft 287 kts 355°
2026-05-08 08:05 44.16816 9.26427 10163 ft 273 kts 355°
2026-05-08 08:05 44.18664 9.26147 9757 ft 266 kts 354°
2026-05-08 08:05 44.20480 9.25852 9251 ft 264 kts 354°
2026-05-08 08:06 44.22287 9.25546 8738 ft 262 kts 354°
2026-05-08 08:06 44.24090 9.25235 8312 ft 256 kts 354°
2026-05-08 08:06 44.25813 9.24935 8026 ft 246 kts 354°
2026-05-08 08:06 44.27459 9.24632 7848 ft 233 kts 351°
2026-05-08 08:07 44.28997 9.24008 7552 ft 236 kts 333°
2026-05-08 08:07 44.30372 9.22690 7016 ft 243 kts 321°
2026-05-08 08:07 44.31662 9.21165 6437 ft 248 kts 321°
2026-05-08 08:07 44.32971 9.19583 6006 ft 245 kts 316°
2026-05-08 08:08 44.33994 9.17804 5898 ft 231 kts 298°
2026-05-08 08:08 44.34559 9.15725 5540 ft 228 kts 286°
2026-05-08 08:08 44.34953 9.13612 5132 ft 224 kts 285°
2026-05-08 08:08 44.35354 9.11510 4577 ft 227 kts 287°
2026-05-08 08:09 44.35786 9.09400 4082 ft 226 kts 288°
2026-05-08 08:09 44.36246 9.07302 3599 ft 225 kts 290°
2026-05-08 08:09 44.36639 9.05234 3208 ft 221 kts 284°
2026-05-08 08:09 44.37008 9.03142 2757 ft 219 kts 288°
2026-05-08 08:10 44.37452 9.01168 2421 ft 211 kts 291°
2026-05-08 08:10 44.37898 8.99264 2127 ft 202 kts 290°
2026-05-08 08:10 44.38298 8.97441 1859 ft 189 kts 290°
2026-05-08 08:10 44.38668 8.95759 1570 ft 177 kts 291°
2026-05-08 08:11 44.39026 8.94171 1340 ft 166 kts 291°
2026-05-08 08:11 44.39352 8.92690 1126 ft 154 kts 291°
2026-05-08 08:11 44.39664 8.91301 898 ft 148 kts 292°
2026-05-08 08:11 44.39982 8.89940 695 ft 148 kts 293°
2026-05-08 08:12 44.40320 8.88580 481 ft 149 kts 292°
2026-05-08 08:12 44.40607 8.87202 282 ft 148 kts 289°
2026-05-08 08:12 44.40876 8.85815 68 ft 146 kts 290°
2026-05-08 08:12 44.41125 8.84552 25 ft 109 kts 285°
2026-05-08 08:13 44.41279 8.83766 24 ft 61 kts 286°
2026-05-08 08:13 44.41369 8.83300 24 ft 33 kts 288°
2026-05-08 08:13 44.41468 8.83098 24 ft 15 kts 324°
2026-05-08 08:13 44.41550 8.83140 24 ft 13 kts 78°
2026-05-08 08:14 44.41529 8.83279 25 ft 17 kts 105°
2026-05-08 08:14 44.41489 8.83487 25 ft 26 kts 105°
2026-05-08 08:14 44.41434 8.83767 24 ft 29 kts 104°
2026-05-08 08:14 44.41380 8.84040 24 ft 28 kts 105°
2026-05-08 08:15 44.41333 8.84269 25 ft 18 kts 105°
2026-05-08 08:15 44.41324 8.84413 25 ft 14 kts 61°
2026-05-08 08:15 44.41383 8.84526 26 ft 15 kts 52°
2026-05-08 08:15 44.41446 8.84640 26 ft 14 kts 53°
2026-05-08 08:16 44.41505 8.84750 26 ft 13 kts 53°
2026-05-08 08:16 44.41563 8.84851 27 ft 13 kts 51°
2026-05-08 08:16 44.41620 8.84947 27 ft 11 kts 49°
2026-05-08 08:16 44.41637 8.85002 27 ft 5 kts 112°
2026-05-08 08:17 44.41611 8.85010 28 ft 3 kts 194°
2026-05-08 08:17 44.41600 8.85006 28 ft 0 kts 194°